Погода в Красном Роге

Россия / Брянская область     52°56′51″N   33°44′25″E
темп.,
°C
ветер,
м/с
пор.,
м/с
влажн.,
%
обл.,
%
осадки,
мм/ч
давл.,
гПа
погр.,
м
23 апреля, пт
пт2300:00+8ююз5119297 0.7 1015322
03:00+7ю4139353 1.1 1014379
06:00+7ю5139369 0.6 1013505
09:00+8юз5895100 1.8 1014754
12:00+6зюз3693100 2.8 1015714
15:00+10зюз3654100 2.9 10141778
18:00+9з3661100 0.0 1014774
21:00+6зюз3771100 0.0 1014171
24 апреля, сб
сб2400:00+4з3778100 0.0 1013243
03:00+2з37865 0.0 1013179
06:00+1зюз36895 0.0 1012147
09:00+4з577786 0.0 1012902
12:00+5з7766100 0.8 10121454
15:00+4з797399 1.3 10121226
18:00+3зсз7127999 0.5 10141117
21:00+1зсз5137628 0.5 1016521
25 апреля, вс
вс2500:000з411845 0.0 1016319
03:00−1зюз412855 0.0 1016301
06:000зюз411825 0.0 1016351
09:00+4зюз586156 0.0 1016883
12:00+8юз71148100 0.1 10142356
15:00+3сз3494100 1.0 1015437
18:00+5з47667 0.9 10141401
21:00+1з36825 1.1 1016116
26 апреля, пн
пн2600:00−1зюз37885 0.0 1016147
03:00−1зюз36905 0.0 1016118
06:00−1зюз25905 0.0 1016123
09:00+4юз346670 0.0 1015572
12:00+7юз4550100 0.7 10141695
15:00+7зюз5651100 1.6 10121714
18:00+5з4668100 1.1 1012713
21:00+1зсз3797100 2.8 1013300
27 апреля, вт
вт2700:000юз3891100 0.1 1013205
03:00−1зюз399418 0.1 1013208
06:00−1зюз39916 0.0 1013243
09:00+4зюз577063 0.0 1013644
12:00+7зюз575699 0.7 10131539
15:00+7зюз6756100 2.7 10131746
18:00+7з46635 0.4 10141220
21:00+2зюз33792 0.4 101646